Time,TemperatureF,DewpointF,PressureIn,WindDirection,WindDirectionDegrees,WindSpeedMPH,WindSpeedGustMPH,Humidity,HourlyPrecipIn,Conditions,Clouds,dailyrainin,SoftwareType,DateUTC
2013-05-05 00:04:00,63.9,30.0,29.94,SE,135,4.0,4.7,28,0.00,,,0.00,WUHU216HW,2013-05-05 07:04:00,
2013-05-05 00:09:00,64.1,31.1,29.95,NW,315,4.0,5.6,29,0.00,,,0.00,WUHU216HW,2013-05-05 07:09:00,
2013-05-05 00:14:00,64.1,32.0,29.94,SSW,203,2.2,7.8,30,0.00,,,0.00,WUHU216HW,2013-05-05 07:14:00,
2013-05-05 00:19:00,64.1,31.1,29.94,WSW,248,3.8,7.8,29,0.00,,,0.00,WUHU216HW,2013-05-05 07:19:00,
2013-05-05 00:24:00,63.9,31.0,29.94,SSE,158,3.4,8.1,29,0.00,,,0.00,WUHU216HW,2013-05-05 07:24:00,
2013-05-05 00:29:00,63.9,31.0,29.94,WSW,248,2.0,8.1,29,0.00,,,0.00,WUHU216HW,2013-05-05 07:29:00,
2013-05-05 00:34:00,63.7,30.8,29.94,NW,315,2.5,6.3,29,0.00,,,0.00,WUHU216HW,2013-05-05 07:34:00,
2013-05-05 00:39:00,63.5,30.6,29.94,WSW,248,4.7,6.3,29,0.00,,,0.00,WUHU216HW,2013-05-05 07:39:00,
2013-05-05 00:44:00,63.4,32.1,29.94,WSW,248,5.4,7.2,31,0.00,,,0.00,WUHU216HW,2013-05-05 07:44:00,
2013-05-05 00:49:00,63.0,31.2,29.94,SSW,203,2.7,7.2,30,0.00,,,0.00,WUHU216HW,2013-05-05 07:49:00,
2013-05-05 00:54:00,62.8,31.7,29.93,NW,315,9.8,9.8,31,0.00,,,0.00,WUHU216HW,2013-05-05 07:54:00,
2013-05-05 00:59:00,63.0,31.2,29.94,West,270,0.7,10.5,30,0.00,,,0.00,WUHU216HW,2013-05-05 07:59:00,
2013-05-05 01:04:00,62.8,31.0,29.94,WNW,293,1.3,10.5,30,0.00,,,0.00,WUHU216HW,2013-05-05 08:04:00,
2013-05-05 01:09:00,62.5,31.3,29.94,SW,225,4.7,4.7,31,0.00,,,0.00,WUHU216HW,2013-05-05 08:09:00,
2013-05-05 01:14:00,62.3,31.1,29.94,SSE,158,2.2,5.8,31,0.00,,,0.00,WUHU216HW,2013-05-05 08:14:00,
2013-05-05 01:20:00,62.3,31.1,29.94,WSW,248,0.4,7.8,31,0.00,,,0.00,WUHU216HW,2013-05-05 08:20:00,
2013-05-05 01:25:00,62.3,31.1,29.94,NW,315,3.4,7.8,31,0.00,,,0.00,WUHU216HW,2013-05-05 08:25:00,
2013-05-05 01:30:00,62.1,31.8,29.94,NW,315,4.3,8.5,32,0.00,,,0.00,WUHU216HW,2013-05-05 08:30:00,
2013-05-05 01:35:00,61.9,31.6,29.94,SW,225,2.7,8.5,32,0.00,,,0.00,WUHU216HW,2013-05-05 08:35:00,
2013-05-05 01:40:00,61.9,31.6,29.94,ESE,113,1.1,6.9,32,0.00,,,0.00,WUHU216HW,2013-05-05 08:40:00,
2013-05-05 01:45:00,61.9,30.9,29.94,SE,135,1.1,5.8,31,0.00,,,0.00,WUHU216HW,2013-05-05 08:45:00,
2013-05-05 01:50:00,61.7,31.4,29.93,SW,225,4.9,6.9,32,0.00,,,0.00,WUHU216HW,2013-05-05 08:50:00,
2013-05-05 01:55:00,61.7,31.4,29.93,NW,315,1.8,9.6,32,0.00,,,0.00,WUHU216HW,2013-05-05 08:55:00,
2013-05-05 02:00:00,61.7,31.4,29.93,WSW,248,7.6,9.6,32,0.00,,,0.00,WUHU216HW,2013-05-05 09:00:00,
2013-05-05 02:05:00,61.9,31.6,29.93,ESE,113,2.7,9.2,32,0.00,,,0.00,WUHU216HW,2013-05-05 09:05:00,
2013-05-05 02:12:00,61.7,31.4,29.94,WSW,248,2.7,5.1,32,0.00,,,0.00,WUHU216HW,2013-05-05 09:12:00,
2013-05-05 02:18:00,61.7,31.4,29.94,SW,225,4.0,7.6,32,0.00,,,0.00,WUHU216HW,2013-05-05 09:18:00,
2013-05-05 02:23:00,61.7,31.4,29.94,NW,315,3.4,7.6,32,0.00,,,0.00,WUHU216HW,2013-05-05 09:23:00,
2013-05-05 02:28:00,61.6,31.2,29.94,SW,225,1.8,6.9,32,0.00,,,0.00,WUHU216HW,2013-05-05 09:28:00,
2013-05-05 02:33:00,61.6,32.0,29.94,SSE,158,1.8,7.4,33,0.00,,,0.00,WUHU216HW,2013-05-05 09:33:00,
2013-05-05 02:38:00,61.4,31.8,29.94,SSW,203,4.0,7.4,33,0.00,,,0.00,WUHU216HW,2013-05-05 09:38:00,
2013-05-05 02:44:00,61.4,31.8,29.94,WSW,248,4.0,10.5,33,0.00,,,0.00,WUHU216HW,2013-05-05 09:44:00,
2013-05-05 02:49:00,61.2,31.7,29.94,East,90,1.6,10.5,33,0.00,,,0.00,WUHU216HW,2013-05-05 09:49:00,
2013-05-05 02:54:00,61.2,31.7,29.94,NNE,23,1.8,5.4,33,0.00,,,0.00,WUHU216HW,2013-05-05 09:54:00,
2013-05-05 02:59:00,61.0,30.8,29.94,WNW,293,2.5,4.7,32,0.00,,,0.00,WUHU216HW,2013-05-05 09:59:00,
2013-05-05 03:04:00,61.0,30.8,29.94,WSW,248,3.8,6.7,32,0.00,,,0.00,WUHU216HW,2013-05-05 10:04:00,
2013-05-05 03:09:00,60.8,30.6,29.95,SE,135,1.3,6.7,32,0.00,,,0.00,WUHU216HW,2013-05-05 10:09:00,
2013-05-05 03:14:00,60.8,30.6,29.95,West,270,0.4,5.6,32,0.00,,,0.00,WUHU216HW,2013-05-05 10:14:00,
2013-05-05 03:19:00,60.7,30.4,29.95,South,180,1.1,4.3,32,0.00,,,0.00,WUHU216HW,2013-05-05 10:19:00,
2013-05-05 03:24:00,60.5,30.3,29.95,WSW,248,1.1,5.6,32,0.00,,,0.00,WUHU216HW,2013-05-05 10:24:00,
2013-05-05 03:29:00,60.3,30.2,29.95,SW,225,3.4,5.6,32,0.00,,,0.00,WUHU216HW,2013-05-05 10:29:00,
2013-05-05 03:34:00,60.1,29.4,29.95,WSW,248,2.9,5.1,31,0.00,,,0.00,WUHU216HW,2013-05-05 10:34:00,
2013-05-05 03:39:00,60.1,29.4,29.95,WSW,248,1.8,4.7,31,0.00,,,0.00,WUHU216HW,2013-05-05 10:39:00,
2013-05-05 03:44:00,60.1,27.6,29.95,SW,225,6.3,6.3,29,0.00,,,0.00,WUHU216HW,2013-05-05 10:44:00,
2013-05-05 03:49:00,60.1,26.6,29.95,WSW,248,4.7,6.3,28,0.00,,,0.00,WUHU216HW,2013-05-05 10:49:00,
2013-05-05 03:54:00,60.3,25.8,29.95,SW,225,6.9,6.9,27,0.00,,,0.00,WUHU216HW,2013-05-05 10:54:00,
2013-05-05 03:59:00,60.3,25.8,29.95,SSW,203,3.4,8.1,27,0.00,,,0.00,WUHU216HW,2013-05-05 10:59:00,
2013-05-05 04:04:00,60.3,24.9,29.95,WSW,248,6.3,8.5,26,0.00,,,0.00,WUHU216HW,2013-05-05 11:04:00,
2013-05-05 04:09:00,60.3,24.0,29.95,SSW,203,6.9,8.5,25,0.00,,,0.00,WUHU216HW,2013-05-05 11:09:00,
2013-05-05 04:14:00,60.3,24.0,29.94,SW,225,1.6,7.6,25,0.00,,,0.00,WUHU216HW,2013-05-05 11:14:00,
2013-05-05 04:19:00,60.1,25.8,29.95,SW,225,2.5,7.6,27,0.00,,,0.00,WUHU216HW,2013-05-05 11:19:00,
2013-05-05 04:24:00,59.8,25.4,29.94,WSW,248,4.0,5.4,27,0.00,,,0.00,WUHU216HW,2013-05-05 11:24:00,
2013-05-05 04:29:00,59.6,25.3,29.94,WSW,248,3.6,6.0,27,0.00,,,0.00,WUHU216HW,2013-05-05 11:29:00,
2013-05-05 04:34:00,59.4,25.1,29.95,WSW,248,5.8,6.0,27,0.00,,,0.00,WUHU216HW,2013-05-05 11:34:00,
2013-05-05 04:39:00,59.4,25.1,29.95,SW,225,1.1,5.8,27,0.00,,,0.00,WUHU216HW,2013-05-05 11:39:00,
2013-05-05 04:44:00,59.2,25.9,29.95,WNW,293,1.8,3.6,28,0.00,,,0.00,WUHU216HW,2013-05-05 11:44:00,
2013-05-05 04:49:00,59.0,25.7,29.95,WSW,248,1.1,4.0,28,0.00,,,0.00,WUHU216HW,2013-05-05 11:49:00,
2013-05-05 04:54:00,58.9,25.7,29.95,WSW,248,1.1,4.0,28,0.00,,,0.00,WUHU216HW,2013-05-05 11:54:00,
2013-05-05 04:59:00,58.7,25.5,29.95,West,270,1.1,2.7,28,0.00,,,0.00,WUHU216HW,2013-05-05 11:59:00,
2013-05-05 05:04:00,58.5,25.3,29.95,SE,135,0.4,1.8,28,0.00,,,0.00,WUHU216HW,2013-05-05 12:04:00,
2013-05-05 05:09:00,58.1,25.9,29.96,SW,225,1.3,1.8,29,0.00,,,0.00,WUHU216HW,2013-05-05 12:09:00,
2013-05-05 05:14:00,58.1,25.9,29.96,West,270,1.8,4.0,29,0.00,,,0.00,WUHU216HW,2013-05-05 12:14:00,
2013-05-05 05:19:00,58.1,26.9,29.96,West,270,1.6,4.0,30,0.00,,,0.00,WUHU216HW,2013-05-05 12:19:00,
2013-05-05 05:24:00,58.3,27.8,29.96,WNW,293,2.9,6.0,31,0.00,,,0.00,WUHU216HW,2013-05-05 12:24:00,
2013-05-05 05:29:00,58.3,27.8,29.96,WSW,248,1.8,6.0,31,0.00,,,0.00,WUHU216HW,2013-05-05 12:29:00,
2013-05-05 05:34:00,58.7,28.1,29.96,WSW,248,2.5,4.5,31,0.00,,,0.00,WUHU216HW,2013-05-05 12:34:00,
2013-05-05 05:39:00,58.7,28.1,29.96,SE,135,1.8,4.5,31,0.00,,,0.00,WUHU216HW,2013-05-05 12:39:00,
2013-05-05 05:44:00,58.5,27.9,29.96,SE,135,0.4,3.6,31,0.00,,,0.00,WUHU216HW,2013-05-05 12:44:00,
2013-05-05 05:49:00,58.5,27.3,29.97,South,180,0.2,1.8,30,0.00,,,0.00,WUHU216HW,2013-05-05 12:49:00,
2013-05-05 05:54:00,58.3,27.8,29.97,SE,135,0.7,3.1,31,0.00,,,0.00,WUHU216HW,2013-05-05 12:54:00,
2013-05-05 05:59:00,58.5,27.9,29.97,WSW,248,0.0,3.1,31,0.00,,,0.00,WUHU216HW,2013-05-05 12:59:00,
2013-05-05 06:04:00,58.5,27.9,29.97,SSE,158,2.0,2.0,31,0.00,,,0.00,WUHU216HW,2013-05-05 13:04:00,
2013-05-05 06:09:00,58.7,28.1,29.98,SSE,158,1.1,3.8,31,0.00,,,0.00,WUHU216HW,2013-05-05 13:09:00,
2013-05-05 06:14:00,59.0,28.5,29.98,SE,135,1.3,3.8,31,0.00,,,0.00,WUHU216HW,2013-05-05 13:14:00,
2013-05-05 06:19:00,59.4,28.7,29.98,SE,135,1.1,3.1,31,0.00,,,0.00,WUHU216HW,2013-05-05 13:19:00,
2013-05-05 06:24:00,59.6,29.6,29.98,SE,135,2.0,2.7,32,0.00,,,0.00,WUHU216HW,2013-05-05 13:24:00,
2013-05-05 06:29:00,59.6,29.6,29.98,SE,135,0.4,2.5,32,0.00,,,0.00,WUHU216HW,2013-05-05 13:29:00,
2013-05-05 06:34:00,59.4,29.4,29.98,SE,135,0.4,2.0,32,0.00,,,0.00,WUHU216HW,2013-05-05 13:34:00,
2013-05-05 06:39:00,59.6,29.6,29.98,South,180,1.1,2.2,32,0.00,,,0.00,WUHU216HW,2013-05-05 13:39:00,
2013-05-05 06:45:00,59.8,29.7,29.98,SE,135,1.8,4.3,32,0.00,,,0.00,WUHU216HW,2013-05-05 13:45:00,
2013-05-05 06:50:00,60.1,30.0,29.99,SE,135,2.9,4.3,32,0.00,,,0.00,WUHU216HW,2013-05-05 13:50:00,
2013-05-05 06:55:00,60.5,30.3,29.99,SE,135,1.8,3.6,32,0.00,,,0.00,WUHU216HW,2013-05-05 13:55:00,
2013-05-05 07:00:00,60.5,30.3,29.99,SSE,158,0.7,3.6,32,0.00,,,0.00,WUHU216HW,2013-05-05 14:00:00,
2013-05-05 07:05:00,60.8,30.6,29.99,SSE,158,0.2,2.9,32,0.00,,,0.00,WUHU216HW,2013-05-05 14:05:00,
2013-05-05 07:10:00,60.8,30.6,29.99,SE,135,3.1,4.3,32,0.00,,,0.00,WUHU216HW,2013-05-05 14:10:00,
2013-05-05 07:15:00,61.2,31.0,29.99,SE,135,0.7,4.7,32,0.00,,,0.00,WUHU216HW,2013-05-05 14:15:00,
2013-05-05 07:20:00,61.4,31.1,29.99,SSW,203,5.4,5.4,32,0.00,,,0.00,WUHU216HW,2013-05-05 14:20:00,
2013-05-05 07:25:00,61.6,32.0,30.00,SSE,158,4.7,5.4,33,0.00,,,0.00,WUHU216HW,2013-05-05 14:25:00,
2013-05-05 07:30:00,61.9,31.6,30.00,SE,135,2.5,5.4,32,0.00,,,0.00,WUHU216HW,2013-05-05 14:30:00,
2013-05-05 07:35:00,62.1,31.8,30.00,SSE,158,2.7,5.4,32,0.00,,,0.00,WUHU216HW,2013-05-05 14:35:00,
2013-05-05 07:40:00,62.3,31.9,30.00,SE,135,2.2,5.4,32,0.00,,,0.00,WUHU216HW,2013-05-05 14:40:00,
2013-05-05 07:45:00,62.6,32.2,30.00,SE,135,0.7,4.5,32,0.00,,,0.00,WUHU216HW,2013-05-05 14:45:00,
2013-05-05 07:50:00,62.8,32.4,30.00,SE,135,5.8,5.8,32,0.00,,,0.00,WUHU216HW,2013-05-05 14:50:00,
2013-05-05 07:55:00,62.6,32.2,30.00,SSE,158,4.9,5.8,32,0.00,,,0.00,WUHU216HW,2013-05-05 14:55:00,
2013-05-05 08:00:00,62.8,32.4,30.00,SSE,158,5.1,6.0,32,0.00,,,0.00,WUHU216HW,2013-05-05 15:00:00,
2013-05-05 08:05:00,62.6,32.2,30.00,SE,135,5.4,6.9,32,0.00,,,0.00,WUHU216HW,2013-05-05 15:05:00,
2013-05-05 08:10:00,62.6,32.2,30.00,SE,135,1.8,6.9,32,0.00,,,0.00,WUHU216HW,2013-05-05 15:10:00,
2013-05-05 08:15:00,62.6,32.2,30.00,SSW,203,1.6,5.4,32,0.00,,,0.00,WUHU216HW,2013-05-05 15:15:00,
2013-05-05 08:20:00,63.2,32.0,30.00,SW,225,1.3,4.5,31,0.00,,,0.00,WUHU216HW,2013-05-05 15:20:00,
2013-05-05 08:25:00,64.1,32.0,30.00,SE,135,1.1,4.0,30,0.00,,,0.00,WUHU216HW,2013-05-05 15:25:00,
2013-05-05 08:30:00,64.8,32.8,30.00,SSW,203,1.8,6.0,30,0.00,,,0.00,WUHU216HW,2013-05-05 15:30:00,
2013-05-05 08:35:00,65.2,33.0,30.01,West,270,3.1,6.3,30,0.00,,,0.00,WUHU216HW,2013-05-05 15:35:00,
2013-05-05 08:40:00,65.7,33.6,30.00,East,90,3.8,6.3,30,0.00,,,0.00,WUHU216HW,2013-05-05 15:40:00,
2013-05-05 08:45:00,65.5,33.4,30.00,SE,135,3.6,7.4,30,0.00,,,0.00,WUHU216HW,2013-05-05 15:45:00,
2013-05-05 08:50:00,65.2,33.0,30.00,SE,135,4.5,7.4,30,0.00,,,0.00,WUHU216HW,2013-05-05 15:50:00,
2013-05-05 08:55:00,65.2,33.0,30.00,SSW,203,4.0,6.3,30,0.00,,,0.00,WUHU216HW,2013-05-05 15:55:00,
2013-05-05 09:00:00,65.2,33.0,30.00,South,180,2.9,6.9,30,0.00,,,0.00,WUHU216HW,2013-05-05 16:00:00,
2013-05-05 09:05:00,65.5,33.4,30.00,ESE,113,2.2,6.9,30,0.00,,,0.00,WUHU216HW,2013-05-05 16:05:00,
2013-05-05 09:10:00,65.9,33.7,30.00,SSE,158,1.1,6.9,30,0.00,,,0.00,WUHU216HW,2013-05-05 16:10:00,
2013-05-05 09:15:00,65.9,33.7,30.01,ESE,113,1.8,6.3,30,0.00,,,0.00,WUHU216HW,2013-05-05 16:15:00,
2013-05-05 09:20:00,66.2,33.0,30.00,SE,135,2.9,7.2,29,0.00,,,0.00,WUHU216HW,2013-05-05 16:20:00,
2013-05-05 09:25:00,66.6,32.3,30.01,ESE,113,0.4,7.2,28,0.00,,,0.00,WUHU216HW,2013-05-05 16:25:00,
2013-05-05 09:30:00,67.3,31.9,30.00,WSW,248,1.8,5.4,27,0.00,,,0.00,WUHU216HW,2013-05-05 16:30:00,
2013-05-05 09:35:00,68.2,29.7,30.00,South,180,3.1,6.9,24,0.00,,,0.00,WUHU216HW,2013-05-05 16:35:00,
2013-05-05 09:40:00,68.6,29.0,30.00,SSE,158,2.0,6.9,23,0.00,,,0.00,WUHU216HW,2013-05-05 16:40:00,
2013-05-05 09:45:00,68.4,28.8,30.01,ESE,113,3.4,8.5,23,0.00,,,0.00,WUHU216HW,2013-05-05 16:45:00,
2013-05-05 09:50:00,68.8,28.2,30.00,ENE,68,4.0,8.5,22,0.00,,,0.00,WUHU216HW,2013-05-05 16:50:00,
2013-05-05 09:55:00,69.3,28.5,30.00,West,270,2.9,6.5,22,0.00,,,0.00,WUHU216HW,2013-05-05 16:55:00,
2013-05-05 10:00:00,69.5,27.7,30.00,SE,135,4.9,9.8,21,0.00,,,0.00,WUHU216HW,2013-05-05 17:00:00,
2013-05-05 10:05:00,69.5,28.7,30.00,SE,135,2.9,9.8,22,0.00,,,0.00,WUHU216HW,2013-05-05 17:05:00,
2013-05-05 10:10:00,69.7,28.9,30.00,SE,135,2.9,9.4,22,0.00,,,0.00,WUHU216HW,2013-05-05 17:10:00,
2013-05-05 10:15:00,70.0,29.2,30.00,ESE,113,2.2,9.4,22,0.00,,,0.00,WUHU216HW,2013-05-05 17:15:00,
2013-05-05 10:20:00,70.4,28.4,30.00,SE,135,4.0,7.6,21,0.00,,,0.00,WUHU216HW,2013-05-05 17:20:00,
2013-05-05 10:25:00,70.6,29.6,30.00,SE,135,4.5,8.5,22,0.00,,,0.00,WUHU216HW,2013-05-05 17:25:00,
2013-05-05 10:30:00,70.9,28.9,30.00,SW,225,3.4,8.5,21,0.00,,,0.00,WUHU216HW,2013-05-05 17:30:00,
2013-05-05 10:35:00,70.9,28.9,30.00,WSW,248,5.8,8.5,21,0.00,,,0.00,WUHU216HW,2013-05-05 17:35:00,
2013-05-05 10:40:00,71.3,29.2,30.00,ESE,113,8.9,8.9,21,0.00,,,0.00,WUHU216HW,2013-05-05 17:40:00,
2013-05-05 10:45:00,71.5,29.4,29.99,WSW,248,4.7,8.9,21,0.00,,,0.00,WUHU216HW,2013-05-05 17:45:00,
2013-05-05 10:50:00,71.8,27.0,30.00,WSW,248,6.3,9.8,19,0.00,,,0.00,WUHU216HW,2013-05-05 17:50:00,
2013-05-05 10:55:00,72.0,29.8,30.00,WSW,248,2.5,9.8,21,0.00,,,0.00,WUHU216HW,2013-05-05 17:55:00,
2013-05-05 11:00:00,72.0,29.8,29.99,WSW,248,2.9,8.7,21,0.00,,,0.00,WUHU216HW,2013-05-05 18:00:00,
2013-05-05 11:05:00,71.8,27.0,29.99,WSW,248,8.1,8.7,19,0.00,,,0.00,WUHU216HW,2013-05-05 18:05:00,
2013-05-05 11:10:00,72.0,27.2,30.00,SE,135,5.4,10.5,19,0.00,,,0.00,WUHU216HW,2013-05-05 18:10:00,
2013-05-05 11:15:00,72.2,27.3,29.99,SE,135,4.7,10.5,19,0.00,,,0.00,WUHU216HW,2013-05-05 18:15:00,
2013-05-05 11:20:00,72.7,27.8,29.99,SW,225,5.1,8.1,19,0.00,,,0.00,WUHU216HW,2013-05-05 18:20:00,
2013-05-05 11:25:00,72.7,27.8,29.99,WSW,248,1.8,8.1,19,0.00,,,0.00,WUHU216HW,2013-05-05 18:25:00,
2013-05-05 11:30:00,72.5,27.6,29.99,West,270,2.2,7.6,19,0.00,,,0.00,WUHU216HW,2013-05-05 18:30:00,
2013-05-05 11:35:00,73.1,28.1,29.99,ESE,113,7.4,7.6,19,0.00,,,0.00,WUHU216HW,2013-05-05 18:35:00,
2013-05-05 11:40:00,73.4,28.5,29.99,West,270,4.7,7.4,19,0.00,,,0.00,WUHU216HW,2013-05-05 18:40:00,
2013-05-05 11:45:00,73.6,28.5,29.99,ESE,113,2.7,7.4,19,0.00,,,0.00,WUHU216HW,2013-05-05 18:45:00,
2013-05-05 11:50:00,74.0,28.9,29.98,South,180,1.1,6.3,19,0.00,,,0.00,WUHU216HW,2013-05-05 18:50:00,
2013-05-05 11:55:00,74.3,27.5,29.98,WSW,248,5.4,6.3,18,0.00,,,0.00,WUHU216HW,2013-05-05 18:55:00,
2013-05-05 12:00:00,74.3,27.5,29.98,SSW,203,1.6,7.6,18,0.00,,,0.00,WUHU216HW,2013-05-05 19:00:00,
2013-05-05 12:05:00,74.5,27.6,29.98,SE,135,4.7,9.8,18,0.00,,,0.00,WUHU216HW,2013-05-05 19:05:00,
2013-05-05 12:10:00,74.9,27.9,29.98,SE,135,6.5,9.8,18,0.00,,,0.00,WUHU216HW,2013-05-05 19:10:00,
2013-05-05 12:15:00,75.2,28.2,29.98,SE,135,2.2,7.4,18,0.00,,,0.00,WUHU216HW,2013-05-05 19:15:00,
2013-05-05 12:20:00,75.4,30.0,29.97,SE,135,3.6,10.5,19,0.00,,,0.00,WUHU216HW,2013-05-05 19:20:00,
2013-05-05 12:27:00,75.6,28.4,29.97,ESE,113,3.4,10.5,18,0.00,,,0.00,WUHU216HW,2013-05-05 19:27:00,
2013-05-05 12:32:00,76.0,30.4,29.96,SE,135,7.8,11.4,19,0.00,,,0.00,WUHU216HW,2013-05-05 19:32:00,
2013-05-05 12:37:00,76.1,28.9,29.96,WSW,248,4.5,11.6,18,0.00,,,0.00,WUHU216HW,2013-05-05 19:37:00,
2013-05-05 12:42:00,76.3,27.4,29.97,WSW,248,6.9,13.6,17,0.00,,,0.00,WUHU216HW,2013-05-05 19:42:00,
2013-05-05 12:47:00,76.5,29.2,29.96,WSW,248,3.4,13.6,18,0.00,,,0.00,WUHU216HW,2013-05-05 19:47:00,
2013-05-05 12:52:00,76.9,27.8,29.96,SW,225,5.4,9.2,17,0.00,,,0.00,WUHU216HW,2013-05-05 19:52:00,
2013-05-05 12:57:00,77.2,29.8,29.96,SE,135,1.6,9.2,18,0.00,,,0.00,WUHU216HW,2013-05-05 19:57:00,
2013-05-05 13:02:00,77.2,28.1,29.96,West,270,6.3,8.5,17,0.00,,,0.00,WUHU216HW,2013-05-05 20:02:00,
2013-05-05 13:07:00,77.0,28.0,29.96,WSW,248,3.4,8.7,17,0.00,,,0.00,WUHU216HW,2013-05-05 20:07:00,
2013-05-05 13:12:00,77.4,28.3,29.96,WSW,248,3.4,8.7,17,0.00,,,0.00,WUHU216HW,2013-05-05 20:12:00,
2013-05-05 13:17:00,77.4,26.6,29.96,WSW,248,12.3,12.3,16,0.00,,,0.00,WUHU216HW,2013-05-05 20:17:00,
2013-05-05 13:22:00,77.6,26.7,29.96,West,270,7.6,12.3,16,0.00,,,0.00,WUHU216HW,2013-05-05 20:22:00,
2013-05-05 13:27:00,77.8,28.5,29.96,NE,45,1.6,12.3,17,0.00,,,0.00,WUHU216HW,2013-05-05 20:27:00,
2013-05-05 13:32:00,77.9,27.0,29.96,SW,225,2.9,9.6,16,0.00,,,0.00,WUHU216HW,2013-05-05 20:32:00,
2013-05-05 13:37:00,77.9,27.0,29.95,SE,135,2.9,9.6,16,0.00,,,0.00,WUHU216HW,2013-05-05 20:37:00,
2013-05-05 13:42:00,78.3,27.3,29.95,SE,135,4.0,6.3,16,0.00,,,0.00,WUHU216HW,2013-05-05 20:42:00,
2013-05-05 13:47:00,78.5,29.1,29.94,SSW,203,5.6,8.5,17,0.00,,,0.00,WUHU216HW,2013-05-05 20:47:00,
2013-05-05 13:52:00,78.5,27.5,29.95,SW,225,4.3,8.5,16,0.00,,,0.00,WUHU216HW,2013-05-05 20:52:00,
2013-05-05 13:57:00,78.1,27.2,29.94,SSW,203,3.4,8.1,16,0.00,,,0.00,WUHU216HW,2013-05-05 20:57:00,
2013-05-05 14:02:00,78.3,27.3,29.94,WSW,248,4.0,8.1,16,0.00,,,0.00,WUHU216HW,2013-05-05 21:02:00,
2013-05-05 14:07:00,78.3,27.3,29.94,WSW,248,4.7,7.4,16,0.00,,,0.00,WUHU216HW,2013-05-05 21:07:00,
2013-05-05 14:12:00,78.3,27.3,29.94,SW,225,4.0,8.9,16,0.00,,,0.00,WUHU216HW,2013-05-05 21:12:00,
2013-05-05 14:17:00,78.5,27.5,29.94,South,180,2.2,8.9,16,0.00,,,0.00,WUHU216HW,2013-05-05 21:17:00,
2013-05-05 14:22:00,79.0,26.2,29.94,WSW,248,2.9,7.6,15,0.00,,,0.00,WUHU216HW,2013-05-05 21:22:00,
2013-05-05 14:27:00,79.2,23.0,29.93,SW,225,6.9,7.8,13,0.00,,,0.00,WUHU216HW,2013-05-05 21:27:00,
2013-05-05 14:32:00,79.2,23.0,29.93,WSW,248,6.5,9.2,13,0.00,,,0.00,WUHU216HW,2013-05-05 21:32:00,
2013-05-05 14:37:00,78.7,24.2,29.93,WSW,248,6.0,9.2,14,0.00,,,0.00,WUHU216HW,2013-05-05 21:37:00,
2013-05-05 14:42:00,78.8,26.0,29.93,WSW,248,6.7,8.5,15,0.00,,,0.00,WUHU216HW,2013-05-05 21:42:00,
2013-05-05 14:47:00,78.7,22.5,29.93,WNW,293,5.6,11.4,13,0.00,,,0.00,WUHU216HW,2013-05-05 21:47:00,
2013-05-05 14:52:00,78.1,20.4,29.92,WSW,248,7.4,11.4,12,0.00,,,0.00,WUHU216HW,2013-05-05 21:52:00,
2013-05-05 14:57:00,77.8,21.9,29.92,SSW,203,2.5,10.3,13,0.00,,,0.00,WUHU216HW,2013-05-05 21:57:00,
2013-05-05 15:02:00,77.9,20.3,29.92,WSW,248,4.9,9.8,12,0.00,,,0.00,WUHU216HW,2013-05-05 22:02:00,
2013-05-05 15:07:00,77.8,20.3,29.92,WSW,248,4.0,9.2,12,0.00,,,0.00,WUHU216HW,2013-05-05 22:07:00,
2013-05-05 15:12:00,78.1,22.2,29.91,SW,225,5.6,9.8,13,0.00,,,0.00,WUHU216HW,2013-05-05 22:12:00,
2013-05-05 15:17:00,77.8,20.3,29.91,West,270,4.0,13.0,12,0.00,,,0.00,WUHU216HW,2013-05-05 22:17:00,
2013-05-05 15:22:00,77.8,21.9,29.91,SW,225,8.5,13.0,13,0.00,,,0.00,WUHU216HW,2013-05-05 22:22:00,
2013-05-05 15:27:00,77.9,20.3,29.91,West,270,6.0,10.5,12,0.00,,,0.00,WUHU216HW,2013-05-05 22:27:00,
2013-05-05 15:32:00,77.9,22.0,29.91,ESE,113,3.8,10.5,13,0.00,,,0.00,WUHU216HW,2013-05-05 22:32:00,
2013-05-05 15:37:00,78.5,25.7,29.91,SSW,203,4.7,9.2,15,0.00,,,0.00,WUHU216HW,2013-05-05 22:37:00,
2013-05-05 15:42:00,79.0,26.2,29.91,ESE,113,10.5,10.5,15,0.00,,,0.00,WUHU216HW,2013-05-05 22:42:00,
2013-05-05 15:48:00,79.4,21.4,29.91,WSW,248,5.4,10.5,12,0.00,,,0.00,WUHU216HW,2013-05-05 22:48:00,
2013-05-05 15:53:00,79.9,23.6,29.91,SE,135,4.5,7.8,13,0.00,,,0.00,WUHU216HW,2013-05-05 22:53:00,
2013-05-05 15:58:00,80.3,23.9,29.91,SW,225,5.1,8.5,13,0.00,,,0.00,WUHU216HW,2013-05-05 22:58:00,
2013-05-05 16:03:00,80.3,23.9,29.90,WNW,293,4.0,8.5,13,0.00,,,0.00,WUHU216HW,2013-05-05 23:03:00,
2013-05-05 16:08:00,79.7,21.7,29.90,WSW,248,11.6,11.6,12,0.00,,,0.00,WUHU216HW,2013-05-05 23:08:00,
2013-05-05 16:13:00,78.8,21.0,29.91,WSW,248,6.7,11.6,12,0.00,,,0.00,WUHU216HW,2013-05-05 23:13:00,
2013-05-05 16:18:00,78.3,22.2,29.91,WSW,248,5.6,10.3,13,0.00,,,0.00,WUHU216HW,2013-05-05 23:18:00,
2013-05-05 16:23:00,78.1,22.2,29.91,WSW,248,4.0,8.9,13,0.00,,,0.00,WUHU216HW,2013-05-05 23:23:00,
2013-05-05 16:28:00,77.9,22.0,29.91,SW,225,6.3,12.1,13,0.00,,,0.00,WUHU216HW,2013-05-05 23:28:00,
2013-05-05 16:33:00,77.9,22.0,29.90,West,270,10.1,12.1,13,0.00,,,0.00,WUHU216HW,2013-05-05 23:33:00,
2013-05-05 16:38:00,78.1,22.2,29.91,West,270,6.0,11.4,13,0.00,,,0.00,WUHU216HW,2013-05-05 23:38:00,
2013-05-05 16:43:00,78.3,22.2,29.91,NW,315,7.4,10.1,13,0.00,,,0.00,WUHU216HW,2013-05-05 23:43:00,
2013-05-05 16:48:00,78.1,22.2,29.91,South,180,2.5,10.5,13,0.00,,,0.00,WUHU216HW,2013-05-05 23:48:00,
2013-05-05 16:53:00,78.1,22.2,29.91,WNW,293,6.3,10.5,13,0.00,,,0.00,WUHU216HW,2013-05-05 23:53:00,
2013-05-05 16:58:00,77.8,20.3,29.91,West,270,6.3,12.8,12,0.00,,,0.00,WUHU216HW,2013-05-05 23:58:00,
2013-05-05 17:03:00,77.8,21.9,29.91,West,270,8.3,12.8,13,0.00,,,0.00,WUHU216HW,2013-05-06 00:03:00,
2013-05-05 17:08:00,76.9,21.3,29.91,WSW,248,2.5,15.0,13,0.00,,,0.00,WUHU216HW,2013-05-06 00:08:00,
2013-05-05 17:13:00,76.9,24.5,29.91,West,270,6.9,15.0,15,0.00,,,0.00,WUHU216HW,2013-05-06 00:13:00,
2013-05-05 17:18:00,77.4,21.6,29.91,West,270,3.6,9.6,13,0.00,,,0.00,WUHU216HW,2013-05-06 00:18:00,
2013-05-05 17:23:00,77.8,25.2,29.91,SSW,203,4.7,9.4,15,0.00,,,0.00,WUHU216HW,2013-05-06 00:23:00,
2013-05-05 17:28:00,77.8,25.2,29.91,WSW,248,6.9,8.7,15,0.00,,,0.00,WUHU216HW,2013-05-06 00:28:00,
2013-05-05 17:33:00,77.2,21.5,29.91,South,180,4.0,11.9,13,0.00,,,0.00,WUHU216HW,2013-05-06 00:33:00,
2013-05-05 17:38:00,77.4,21.6,29.91,SE,135,4.7,11.9,13,0.00,,,0.00,WUHU216HW,2013-05-06 00:38:00,
2013-05-05 17:43:00,77.0,21.3,29.91,SW,225,7.2,10.1,13,0.00,,,0.00,WUHU216HW,2013-05-06 00:43:00,
2013-05-05 17:48:00,76.7,24.4,29.91,WNW,293,3.4,8.1,15,0.00,,,0.00,WUHU216HW,2013-05-06 00:48:00,
2013-05-05 17:53:00,76.3,24.1,29.91,WSW,248,3.4,8.3,15,0.00,,,0.00,WUHU216HW,2013-05-06 00:53:00,
2013-05-05 17:58:00,75.6,25.2,29.91,SW,225,8.5,8.5,16,0.00,,,0.00,WUHU216HW,2013-05-06 00:58:00,
2013-05-05 18:03:00,75.1,24.8,29.91,SW,225,0.4,8.5,16,0.00,,,0.00,WUHU216HW,2013-05-06 01:03:00,
2013-05-05 18:08:00,74.7,24.5,29.91,WSW,248,4.0,8.5,16,0.00,,,0.00,WUHU216HW,2013-05-06 01:08:00,
2013-05-05 18:13:00,74.5,26.0,29.91,SW,225,1.6,6.9,17,0.00,,,0.00,WUHU216HW,2013-05-06 01:13:00,
2013-05-05 18:18:00,74.5,24.3,29.91,WNW,293,8.3,8.3,16,0.00,,,0.00,WUHU216HW,2013-05-06 01:18:00,
2013-05-05 18:23:00,74.3,24.2,29.91,South,180,1.1,8.3,16,0.00,,,0.00,WUHU216HW,2013-05-06 01:23:00,
2013-05-05 18:28:00,74.5,26.0,29.91,SSE,158,4.3,8.3,17,0.00,,,0.00,WUHU216HW,2013-05-06 01:28:00,
2013-05-05 18:33:00,74.7,26.1,29.91,SE,135,1.1,9.2,17,0.00,,,0.00,WUHU216HW,2013-05-06 01:33:00,
2013-05-05 18:38:00,74.2,25.8,29.91,SSW,203,1.3,9.2,17,0.00,,,0.00,WUHU216HW,2013-05-06 01:38:00,
2013-05-05 18:43:00,73.4,25.1,29.91,West,270,4.0,6.3,17,0.00,,,0.00,WUHU216HW,2013-05-06 01:43:00,
2013-05-05 18:48:00,72.7,26.2,29.91,WSW,248,5.1,7.4,18,0.00,,,0.00,WUHU216HW,2013-05-06 01:48:00,
2013-05-05 18:53:00,72.4,25.8,29.91,West,270,2.5,8.5,18,0.00,,,0.00,WUHU216HW,2013-05-06 01:53:00,
2013-05-05 18:58:00,71.8,25.4,29.91,NW,315,6.9,8.5,18,0.00,,,0.00,WUHU216HW,2013-05-06 01:58:00,
2013-05-05 19:03:00,71.6,25.2,29.91,WSW,248,5.4,8.5,18,0.00,,,0.00,WUHU216HW,2013-05-06 02:03:00,
2013-05-05 19:08:00,71.3,24.9,29.91,WSW,248,2.9,9.2,18,0.00,,,0.00,WUHU216HW,2013-05-06 02:08:00,
2013-05-05 19:13:00,70.9,26.3,29.91,SW,225,3.6,9.2,19,0.00,,,0.00,WUHU216HW,2013-05-06 02:13:00,
2013-05-05 19:18:00,70.9,26.3,29.91,WNW,293,3.6,9.2,19,0.00,,,0.00,WUHU216HW,2013-05-06 02:18:00,
2013-05-05 19:23:00,70.6,25.9,29.91,SW,225,2.5,9.2,19,0.00,,,0.00,WUHU216HW,2013-05-06 02:23:00,
2013-05-05 19:28:00,70.4,24.2,29.92,West,270,2.2,6.3,18,0.00,,,0.00,WUHU216HW,2013-05-06 02:28:00,
2013-05-05 19:33:00,70.0,24.0,29.92,WSW,248,4.0,6.9,18,0.00,,,0.00,WUHU216HW,2013-05-06 02:33:00,
2013-05-05 19:38:00,69.8,25.4,29.93,WNW,293,6.7,8.7,19,0.00,,,0.00,WUHU216HW,2013-05-06 02:38:00,
2013-05-05 19:43:00,69.5,27.7,29.93,West,270,11.6,11.6,21,0.00,,,0.00,WUHU216HW,2013-05-06 02:43:00,
2013-05-05 19:48:00,69.5,27.7,29.93,SSW,203,6.3,11.6,21,0.00,,,0.00,WUHU216HW,2013-05-06 02:48:00,
2013-05-05 19:53:00,69.3,27.5,29.93,South,180,2.2,15.4,21,0.00,,,0.00,WUHU216HW,2013-05-06 02:53:00,
2013-05-05 19:58:00,69.1,28.5,29.94,West,270,6.7,15.4,22,0.00,,,0.00,WUHU216HW,2013-05-06 02:58:00,
2013-05-05 20:03:00,68.8,29.2,29.94,NW,315,5.1,8.1,23,0.00,,,0.00,WUHU216HW,2013-05-06 03:03:00,
2013-05-05 20:08:00,68.8,29.2,29.94,WSW,248,6.7,15.0,23,0.00,,,0.00,WUHU216HW,2013-05-06 03:08:00,
2013-05-05 20:15:00,68.8,30.2,29.94,WSW,248,6.7,15.0,24,0.00,,,0.00,WUHU216HW,2013-05-06 03:15:00,
2013-05-05 20:20:00,68.6,30.0,29.94,WSW,248,8.5,14.3,24,0.00,,,0.00,WUHU216HW,2013-05-06 03:20:00,
2013-05-05 20:25:00,68.6,30.0,29.94,WNW,293,4.7,15.4,24,0.00,,,0.00,WUHU216HW,2013-05-06 03:25:00,
2013-05-05 20:30:00,68.4,29.8,29.94,NNE,23,2.5,15.4,24,0.00,,,0.00,WUHU216HW,2013-05-06 03:30:00,
2013-05-05 20:35:00,68.2,30.7,29.94,West,270,3.1,10.5,25,0.00,,,0.00,WUHU216HW,2013-05-06 03:35:00,
2013-05-05 20:40:00,68.0,30.5,29.95,West,270,6.3,10.5,25,0.00,,,0.00,WUHU216HW,2013-05-06 03:40:00,
2013-05-05 20:45:00,68.0,30.5,29.95,WSW,248,6.3,14.1,25,0.00,,,0.00,WUHU216HW,2013-05-06 03:45:00,
2013-05-05 20:50:00,68.0,30.5,29.95,WSW,248,3.4,14.1,25,0.00,,,0.00,WUHU216HW,2013-05-06 03:50:00,
2013-05-05 20:55:00,67.9,31.3,29.95,NW,315,8.3,11.0,26,0.00,,,0.00,WUHU216HW,2013-05-06 03:55:00,
2013-05-05 21:01:00,67.9,32.3,29.95,WNW,293,10.7,13.0,27,0.00,,,0.00,WUHU216HW,2013-05-06 04:01:00,
2013-05-05 21:06:00,67.7,33.2,29.95,West,270,4.0,10.7,28,0.00,,,0.00,WUHU216HW,2013-05-06 04:06:00,
2013-05-05 21:11:00,67.5,33.0,29.95,WSW,248,3.6,12.1,28,0.00,,,0.00,WUHU216HW,2013-05-06 04:11:00,
2013-05-05 21:16:00,67.5,33.0,29.95,WNW,293,7.2,12.1,28,0.00,,,0.00,WUHU216HW,2013-05-06 04:16:00,
2013-05-05 21:21:00,67.3,30.9,29.96,WSW,248,13.6,13.6,26,0.00,,,0.00,WUHU216HW,2013-05-06 04:21:00,
2013-05-05 21:26:00,67.3,30.9,29.96,WNW,293,11.0,13.6,26,0.00,,,0.00,WUHU216HW,2013-05-06 04:26:00,
2013-05-05 21:31:00,67.1,30.8,29.96,WNW,293,4.0,15.7,26,0.04,,,0.04,WUHU216HW,2013-05-06 04:31:00,
2013-05-05 21:36:00,67.1,30.8,29.96,NW,315,5.6,15.7,26,0.04,,,0.04,WUHU216HW,2013-05-06 04:36:00,
2013-05-05 21:41:00,67.0,30.6,29.96,WSW,248,7.2,14.5,26,0.04,,,0.04,WUHU216HW,2013-05-06 04:41:00,
2013-05-05 21:46:00,67.0,30.6,29.96,WSW,248,5.6,12.1,26,0.04,,,0.04,WUHU216HW,2013-05-06 04:46:00,
2013-05-05 21:51:00,67.0,30.6,29.96,West,270,4.5,12.1,26,0.04,,,0.04,WUHU216HW,2013-05-06 04:51:00,
2013-05-05 21:56:00,66.8,32.5,29.96,NNW,338,7.8,12.1,28,0.04,,,0.04,WUHU216HW,2013-05-06 04:56:00,
2013-05-05 22:01:00,66.6,32.3,29.96,WSW,248,8.7,10.3,28,0.04,,,0.04,WUHU216HW,2013-05-06 05:01:00,
2013-05-05 22:06:00,66.4,33.1,29.96,WNW,293,4.0,9.8,29,0.04,,,0.04,WUHU216HW,2013-05-06 05:06:00,
2013-05-05 22:11:00,66.1,32.9,29.97,WSW,248,3.4,9.6,29,0.04,,,0.04,WUHU216HW,2013-05-06 05:11:00,
2013-05-05 22:16:00,65.9,32.7,29.97,WNW,293,2.9,8.1,29,0.04,,,0.04,WUHU216HW,2013-05-06 05:16:00,
2013-05-05 22:21:00,65.5,32.4,29.97,WSW,248,2.7,6.3,29,0.04,,,0.04,WUHU216HW,2013-05-06 05:21:00,
2013-05-05 22:26:00,65.5,32.4,29.96,NNW,338,4.7,8.3,29,0.04,,,0.04,WUHU216HW,2013-05-06 05:26:00,
2013-05-05 22:31:00,65.3,32.2,29.96,WSW,248,3.4,8.3,29,0.00,,,0.04,WUHU216HW,2013-05-06 05:31:00,
2013-05-05 22:36:00,65.2,32.0,29.96,SE,135,2.2,7.6,29,0.00,,,0.04,WUHU216HW,2013-05-06 05:36:00,
2013-05-05 22:41:00,65.2,31.1,29.96,WNW,293,5.1,7.6,28,0.00,,,0.04,WUHU216HW,2013-05-06 05:41:00,
2013-05-05 22:46:00,65.2,29.1,29.96,WSW,248,6.9,8.3,26,0.00,,,0.04,WUHU216HW,2013-05-06 05:46:00,
2013-05-05 22:51:00,65.2,29.1,29.95,WSW,248,3.4,8.3,26,0.00,,,0.04,WUHU216HW,2013-05-06 05:51:00,
2013-05-05 22:56:00,64.8,27.7,29.95,WNW,293,5.6,6.9,25,0.00,,,0.04,WUHU216HW,2013-05-06 05:56:00,
2013-05-05 23:01:00,64.8,27.7,29.95,WNW,293,4.0,6.9,25,0.00,,,0.04,WUHU216HW,2013-05-06 06:01:00,
2013-05-05 23:06:00,64.6,27.6,29.95,WSW,248,3.4,6.9,25,0.00,,,0.04,WUHU216HW,2013-05-06 06:06:00,
2013-05-05 23:11:00,64.6,26.7,29.95,SW,225,9.6,11.4,24,0.00,,,0.04,WUHU216HW,2013-05-06 06:11:00,
2013-05-05 23:16:00,64.4,27.5,29.95,WSW,248,6.7,11.4,25,0.00,,,0.04,WUHU216HW,2013-05-06 06:16:00,
2013-05-05 23:21:00,64.4,27.5,29.96,SW,225,4.7,9.4,25,0.00,,,0.04,WUHU216HW,2013-05-06 06:21:00,
2013-05-05 23:26:00,64.3,27.3,29.96,WSW,248,4.7,8.5,25,0.00,,,0.04,WUHU216HW,2013-05-06 06:26:00,
2013-05-05 23:31:00,64.1,27.2,29.96,SSW,203,5.4,9.4,25,0.00,,,0.04,WUHU216HW,2013-05-06 06:31:00,
2013-05-05 23:36:00,63.9,28.0,29.96,WNW,293,6.3,9.4,26,0.00,,,0.04,WUHU216HW,2013-05-06 06:36:00,
2013-05-05 23:41:00,63.7,28.8,29.97,WSW,248,6.0,8.7,27,0.00,,,0.04,WUHU216HW,2013-05-06 06:41:00,
2013-05-05 23:46:00,63.7,28.8,29.97,WSW,248,6.3,7.4,27,0.00,,,0.04,WUHU216HW,2013-05-06 06:46:00,
2013-05-05 23:51:00,63.5,28.6,29.97,WSW,248,9.6,9.6,27,0.00,,,0.04,WUHU216HW,2013-05-06 06:51:00,
2013-05-05 23:56:00,63.4,28.5,29.97,WSW,248,5.4,9.6,27,0.00,,,0.04,WUHU216HW,2013-05-06 06:56:00,